Date String (YYYY-MM-DD hh:mm:ss) UTC,Instrument flags,Ambient pressure (hPa),Sample flow (lpm),Bypass flow (lpm),Sample temperature (°C),Ambient temperature (°C),ASC tube jacket temperature (°C),LED temperature (°C),Box temperature (°C),Sample RH (%),Span deviation,Mass concentration (μg/m³),Mass concentration (μg/m³),Mass concentration (μg/m³)
DateTimeUTC,F1_M11,P_M11,Q1_M11,Q2_M11,T1_M11,T2_M11,T3_M11,T4_M11,T5_M11,U1_M11,ZSPAN_M11,X2_M11,X0_M11,X1_M11
2022-08-30 16:00:00,,0834.4,5.01,0.00,30.0,28.9,00.0,38.6,31.9,26.4,0000.0,0007.17,0020.14,0005.86
2022-08-30 16:01:00,,0834.4,4.98,0.00,30.0,28.0,00.0,38.6,31.9,26.2,0000.0,0007.23,0019.50,0005.87
2022-08-30 16:02:00,,0834.4,5.00,0.00,29.9,27.0,00.0,38.6,31.7,26.1,0000.0,0007.29,0019.06,0005.89
2022-08-30 16:03:00,,0834.4,5.00,0.00,29.9,27.0,00.0,38.5,31.7,26.1,0000.0,0007.31,0018.80,0005.90
2022-08-30 16:04:00,,0834.5,5.01,0.00,29.8,27.3,00.0,38.5,31.6,26.2,0000.0,0007.33,0017.53,0005.90
2022-08-30 16:05:00,,0834.5,5.00,0.00,29.8,27.5,00.0,38.5,31.5,26.8,0000.0,0007.40,0017.32,0005.92
2022-08-30 16:06:00,,0834.4,5.01,0.00,29.8,27.8,00.0,38.5,31.6,26.5,0000.0,0007.46,0019.21,0005.92
2022-08-30 16:07:00,,0834.4,5.00,0.00,29.8,28.1,00.0,38.5,31.6,26.6,0000.0,0007.47,0018.71,0005.93
2022-08-30 16:08:00,,0834.4,5.00,0.00,29.8,28.3,00.0,38.5,31.6,26.6,0000.0,0007.45,0018.06,0005.93
2022-08-30 16:09:00,,0834.4,5.00,0.00,29.8,28.4,00.0,38.5,31.7,26.5,0000.0,0007.46,0017.07,0005.93
2022-08-30 16:10:00,,0834.4,5.01,0.00,29.8,28.6,00.0,38.5,31.7,26.6,0000.0,0007.46,0018.18,0005.95
2022-08-30 16:11:00,,0834.4,5.01,0.00,29.9,28.7,00.0,38.5,31.8,26.6,0000.0,0007.44,0019.36,0005.96
2022-08-30 16:12:00,,0834.4,4.98,0.00,29.9,28.8,00.0,38.5,31.8,26.8,0000.0,0007.46,0020.57,0005.98
2022-08-30 16:13:00,,0834.4,5.00,0.00,29.9,28.9,00.0,38.6,31.9,27.3,0000.0,0007.41,0020.52,0005.98
2022-08-30 16:14:00,,0834.4,4.99,0.00,30.0,28.4,00.0,38.6,31.9,26.9,0000.0,0007.43,0020.83,0006.01
2022-08-30 16:15:00,,0834.4,5.00,0.00,29.9,27.2,00.0,38.5,31.7,27.1,0000.0,0007.47,0021.45,0006.05
2022-08-30 16:16:00,,0834.4,5.01,0.00,29.9,26.9,00.0,38.5,31.7,27.2,0000.0,0007.48,0021.86,0006.08
2022-08-30 16:17:00,,0834.4,5.00,0.00,29.8,27.1,00.0,38.5,31.6,26.7,0000.0,0007.51,0020.64,0006.10
2022-08-30 16:18:00,,0834.4,4.99,0.00,29.8,27.4,00.0,38.4,31.5,27.2,0000.0,0007.45,0020.49,0006.10
2022-08-30 16:19:00,,0834.5,5.00,0.00,29.8,27.7,00.0,38.4,31.5,26.9,0000.0,0007.47,0020.61,0006.11
2022-08-30 16:20:00,,0834.4,4.99,0.00,29.8,28.0,00.0,38.4,31.6,26.6,0000.0,0007.41,0020.81,0006.11
2022-08-30 16:21:00,,0834.4,5.00,0.00,29.8,28.2,00.0,38.4,31.6,26.7,0000.0,0007.41,0019.23,0006.12
2022-08-30 16:22:00,,0834.4,5.00,0.00,29.8,28.4,00.0,38.5,31.6,26.6,0000.0,0007.44,0018.46,0006.12
2022-08-30 16:23:00,,0834.4,5.00,0.00,29.8,28.5,00.0,38.5,31.7,26.9,0000.0,0007.44,0017.34,0006.12
2022-08-30 16:24:00,,0834.4,5.00,0.00,29.8,28.7,00.0,38.5,31.7,27.2,0000.0,0007.47,0017.77,0006.13
2022-08-30 16:25:00,,0834.4,5.00,0.00,29.9,28.8,00.0,38.5,31.7,27.7,0000.0,0007.47,0017.88,0006.13
2022-08-30 16:26:00,,0834.5,4.99,0.00,29.9,28.6,00.0,38.5,31.8,28.0,0000.0,0007.41,0017.32,0006.13
2022-08-30 16:27:00,,0834.4,4.99,0.00,29.9,27.4,00.0,38.5,31.7,28.1,0000.0,0007.41,0018.55,0006.14
2022-08-30 16:28:00,,0834.4,5.00,0.00,29.8,26.8,00.0,38.5,31.6,28.4,0000.0,0007.45,0017.68,0006.17
2022-08-30 16:29:00,,0834.4,5.00,0.00,29.8,27.0,00.0,38.4,31.5,28.2,0000.0,0007.54,0017.67,0006.19
2022-08-30 16:30:00,,0834.4,5.00,0.00,29.7,27.3,00.0,38.4,31.4,27.9,0000.0,0007.59,0018.40,0006.21
2022-08-30 16:31:00,,0834.4,5.01,0.00,29.7,27.6,00.0,38.4,31.5,27.8,0000.0,0007.60,0018.09,0006.21
2022-08-30 16:32:00,,0834.4,5.00,0.00,29.7,27.9,00.0,38.4,31.5,27.7,0000.0,0007.56,0017.82,0006.21
2022-08-30 16:33:00,,0834.4,5.00,0.00,29.7,28.1,00.0,38.4,31.5,27.6,0000.0,0007.53,0018.27,0006.21
2022-08-30 16:34:00,,0834.4,5.00,0.00,29.7,28.3,00.0,38.4,31.6,27.6,0000.0,0007.59,0019.41,0006.21
2022-08-30 16:35:00,,0834.4,5.00,0.00,29.7,28.4,00.0,38.4,31.6,27.3,0000.0,0007.57,0018.90,0006.22
2022-08-30 16:36:00,,0834.4,5.01,0.00,29.8,28.6,00.0,38.4,31.7,27.4,0000.0,0007.56,0019.69,0006.23
2022-08-30 16:37:00,,0834.4,4.99,0.00,29.8,28.7,00.0,38.4,31.7,27.6,0000.0,0007.59,0020.57,0006.24
2022-08-30 16:38:00,,0834.4,4.99,0.00,29.8,28.6,00.0,38.5,31.7,27.6,0000.0,0007.57,0019.00,0006.21
2022-08-30 16:39:00,,0834.4,5.00,0.00,29.8,27.6,00.0,38.4,31.7,27.1,0000.0,0007.53,0019.41,0006.19
2022-08-30 16:40:00,,0834.4,5.00,0.00,29.8,26.8,00.0,38.4,31.6,27.3,0000.0,0007.50,0020.07,0006.18
2022-08-30 16:41:00,,0834.4,5.00,0.00,29.7,26.9,00.0,38.4,31.5,27.8,0000.0,0007.47,0019.76,0006.18
2022-08-30 16:42:00,,0834.4,5.01,0.00,29.7,27.2,00.0,38.3,31.4,27.8,0000.0,0007.50,0020.39,0006.19
2022-08-30 16:43:00,,0834.4,4.99,0.00,29.7,27.5,00.0,38.3,31.4,27.5,0000.0,0007.51,0020.91,0006.18
2022-08-30 16:44:00,,0834.4,5.01,0.00,29.7,27.8,00.0,38.3,31.4,27.3,0000.0,0007.53,0020.17,0006.18
2022-08-30 16:45:00,,0834.4,4.99,0.00,29.7,28.0,00.0,38.3,31.5,27.0,0000.0,0007.46,0018.64,0006.18
2022-08-30 16:46:00,,0834.4,5.00,0.00,29.7,28.2,00.0,38.3,31.5,27.1,0000.0,0007.45,0018.79,0006.17
2022-08-30 16:47:00,,0834.3,5.00,0.00,29.7,28.4,00.0,38.3,31.6,27.2,0000.0,0007.44,0018.44,0006.14
2022-08-30 16:48:00,,0834.4,5.00,0.00,29.7,28.5,00.0,38.4,31.6,27.1,0000.0,0007.41,0017.02,0006.13
2022-08-30 16:49:00,,0834.3,5.01,0.00,29.7,28.7,00.0,38.4,31.7,26.8,0000.0,0007.35,0016.83,0006.13
2022-08-30 16:50:00,,0834.3,4.98,0.00,29.8,28.7,00.0,38.4,31.7,26.5,0000.0,0007.32,0016.53,0006.13
2022-08-30 16:51:00,,0834.3,5.01,0.00,29.8,27.9,00.0,38.4,31.7,26.4,0000.0,0007.33,0016.66,0006.13
2022-08-30 16:52:00,,0834.3,5.00,0.00,29.7,26.9,00.0,38.4,31.5,26.8,0000.0,0007.29,0016.83,0006.12
2022-08-30 16:53:00,,0834.3,4.99,0.00,29.7,26.7,00.0,38.3,31.5,26.8,0000.0,0007.25,0017.45,0006.12
2022-08-30 16:54:00,,0834.3,5.00,0.00,29.6,27.0,00.0,38.3,31.3,26.8,0000.0,0007.24,0017.00,0006.11
2022-08-30 16:55:00,,0834.3,5.00,0.00,29.6,27.3,00.0,38.3,31.3,26.9,0000.0,0007.20,0017.18,0006.10
2022-08-30 16:56:00,,0834.3,5.01,0.00,29.6,27.6,00.0,38.3,31.4,27.2,0000.0,0007.22,0017.64,0006.10
2022-08-30 16:57:00,,0834.3,5.00,0.00,29.6,27.9,00.0,38.3,31.4,27.2,0000.0,0007.25,0018.20,0006.11
2022-08-30 16:58:00,,0834.3,5.00,0.00,29.6,28.1,00.0,38.3,31.5,27.3,0000.0,0007.27,0018.29,0006.11
2022-08-30 16:59:00,,0834.3,5.00,0.00,29.6,28.3,00.0,38.3,31.5,26.6,0000.0,0007.28,0019.06,0006.10
